• En España
  • Lista de países
  • Para 7 días
  • Temperatura del agua
  • Mapa Satelital
  • El tiempo en el mapa
  • Informadores
  • user-avatar
    Iniciar sesión

    Tiempo cada hora La Paz

    Hoy, 19 Septiembre, Miércoles

    Tiempo Temperatura Precipitaciones Viento Presión Humedad
    00:00 +5°C° 0 mm 1 mps 472 mmHg 62%
    01:00 +4°C° 0 mm 1 mps 472 mmHg 57%
    02:00 +4°C° 0 mm 1 mps 471 mmHg 51%
    03:00 +2°C° 0 mm 2 mps 471 mmHg 45%
    04:00 +2°C° 0 mm 2 mps 471 mmHg 39%
    05:00 +4°C° 0 mm 2 mps 472 mmHg 37%
    06:00 +5°C° 0 mm 2 mps 474 mmHg 36%
    07:00 +7°C° 0 mm 2 mps 475 mmHg 35%
    08:00 +9°C° 0 mm 2 mps 476 mmHg 29%
    09:00 +12°C° 0 mm 2 mps 478 mmHg 23%
    10:00 +14°C° 0 mm 2 mps 479 mmHg 18%
    11:00 +15°C° 0 mm 2 mps 479 mmHg 19%
    12:00 +14°C° 0 mm 3 mps 478 mmHg 19%
    13:00 +16°C° 0 mm 3 mps 478 mmHg 20%
    14:00 +14°C° 0.1 mm 3 mps 478 mmHg 24%
    15:00 +14°C° 0.1 mm 3 mps 477 mmHg 28%
    16:00 +13°C° 0.1 mm 3 mps 476 mmHg 32%
    17:00 +11°C° 0.4 mm 3 mps 476 mmHg 44%
    18:00 +9°C° 0.4 mm 3 mps 475 mmHg 56%
    19:00 +8°C° 0.4 mm 3 mps 475 mmHg 67%
    20:00 +7°C° 0.1 mm 2 mps 475 mmHg 71%
    21:00 +7°C° 0.1 mm 2 mps 475 mmHg 75%
    22:00 +6°C° 0.1 mm 2 mps 475 mmHg 79%
    23:00 +6°C° 0.1 mm 2 mps 475 mmHg 81%

    Mañana, 20 Septiembre, Jueves

    Tiempo Temperatura Precipitaciones Viento Presión Humedad
    00:00 +6°C° 0.1 mm 1 mps 474 mmHg 82%
    01:00 +6°C° 0.1 mm 1 mps 474 mmHg 84%
    02:00 +5°C° 0 mm 1 mps 473 mmHg 84%
    03:00 +5°C° 0 mm 1 mps 473 mmHg 84%
    04:00 +4°C° 0 mm 1 mps 472 mmHg 84%
    05:00 +5°C° 0 mm 1 mps 474 mmHg 76%
    06:00 +6°C° 0 mm 1 mps 475 mmHg 68%
    07:00 +8°C° 0 mm 1 mps 476 mmHg 60%
    08:00 +10°C° 0 mm 1 mps 477 mmHg 50%
    09:00 +10°C° 0 mm 2 mps 478 mmHg 40%
    10:00 +13°C° 0 mm 2 mps 479 mmHg 30%
    11:00 +14°C° 0.4 mm 2 mps 479 mmHg 31%
    12:00 +14°C° 0.4 mm 2 mps 478 mmHg 33%
    13:00 +14°C° 0.4 mm 3 mps 478 mmHg 34%
    14:00 +13°C° 1 mm 3 mps 477 mmHg 39%
    15:00 +13°C° 1 mm 3 mps 477 mmHg 43%
    16:00 +12°C° 1 mm 4 mps 476 mmHg 48%
    17:00 +11°C° 0.1 mm 3 mps 476 mmHg 56%
    18:00 +9°C° 0.1 mm 3 mps 476 mmHg 65%
    19:00 +8°C° 0.1 mm 3 mps 476 mmHg 74%
    20:00 +8°C° 0 mm 3 mps 476 mmHg 78%
    21:00 +7°C° 0 mm 3 mps 476 mmHg 81%
    22:00 +7°C° 0 mm 2 mps 476 mmHg 85%
    23:00 +6°C° 0.1 mm 2 mps 475 mmHg 86%

    Pasado mañana, 21 Septiembre, Viernes

    Tiempo Temperatura Precipitaciones Viento Presión Humedad
    00:00 +7°C° 0.1 mm 1 mps 475 mmHg 87%
    01:00 +6°C° 0.1 mm 1 mps 474 mmHg 88%
    02:00 +6°C° 0 mm 1 mps 474 mmHg 87%
    03:00 +6°C° 0 mm 1 mps 474 mmHg 86%
    04:00 +5°C° 0 mm 1 mps 473 mmHg 85%
    05:00 +6°C° 0 mm 1 mps 474 mmHg 81%
    06:00 +7°C° 0 mm 1 mps 475 mmHg 77%
    07:00 +8°C° 0 mm 1 mps 476 mmHg 72%
    08:00 +8°C° 0 mm 2 mps 477 mmHg 65%
    09:00 +10°C° 0 mm 2 mps 478 mmHg 57%
    10:00 +12°C° 0 mm 2 mps 478 mmHg 50%
    11:00 +12°C° 0.1 mm 3 mps 478 mmHg 50%
    12:00 +12°C° 0.1 mm 3 mps 478 mmHg 50%
    13:00 +13°C° 0.1 mm 3 mps 477 mmHg 50%
    14:00 +12°C° 0.2 mm 4 mps 477 mmHg 53%
    15:00 +12°C° 0.2 mm 4 mps 476 mmHg 56%
    16:00 +11°C° 0.2 mm 4 mps 476 mmHg 59%
    17:00 +10°C° 0.1 mm 4 mps 475 mmHg 65%
    18:00 +8°C° 0.1 mm 4 mps 475 mmHg 72%
    19:00 +6°C° 0.1 mm 4 mps 475 mmHg 79%
    20:00 +7°C° 0.1 mm 3 mps 475 mmHg 80%
    21:00 +7°C° 0.1 mm 2 mps 475 mmHg 81%
    22:00 +6°C° 0.1 mm 2 mps 475 mmHg 82%
    23:00 +6°C° 0.1 mm 2 mps 475 mmHg 81%

    22 Septiembre, Sábado

    Tiempo Temperatura Precipitaciones Viento Presión Humedad
    00:00 +6°C° 0.1 mm 2 mps 475 mmHg 81%
    01:00 +6°C° 0.1 mm 2 mps 474 mmHg 80%
    02:00 +7°C° 0 mm 1 mps 474 mmHg 81%
    03:00 +6°C° 0 mm 1 mps 474 mmHg 82%
    04:00 +6°C° 0 mm 1 mps 473 mmHg 83%
    05:00 +7°C° 0 mm 1 mps 474 mmHg 78%
    06:00 +7°C° 0 mm 1 mps 475 mmHg 73%
    07:00 +8°C° 0 mm 1 mps 476 mmHg 68%
    08:00 +9°C° 0 mm 2 mps 477 mmHg 60%
    09:00 +10°C° 0 mm 2 mps 478 mmHg 53%
    10:00 +12°C° 0 mm 3 mps 478 mmHg 45%
    11:00 +12°C° 0.5 mm 3 mps 478 mmHg 45%
    12:00 +13°C° 0.5 mm 3 mps 478 mmHg 45%
    13:00 +13°C° 0.5 mm 4 mps 477 mmHg 44%
    14:00 +12°C° 0.6 mm 4 mps 476 mmHg 49%
    15:00 +12°C° 0.6 mm 4 mps 476 mmHg 53%
    16:00 +10°C° 0.6 mm 5 mps 475 mmHg 58%
    17:00 +10°C° 0.2 mm 4 mps 475 mmHg 64%
    18:00 +7°C° 0.2 mm 4 mps 475 mmHg 70%
    19:00 +7°C° 0.2 mm 3 mps 475 mmHg 76%
    20:00 +7°C° 0.4 mm 3 mps 475 mmHg 77%
    21:00 +7°C° 0.4 mm 2 mps 475 mmHg 78%
    22:00 +7°C° 0.4 mm 2 mps 475 mmHg 79%
    23:00 +6°C° 0.3 mm 2 mps 475 mmHg 79%

    23 Septiembre, Domingo

    Tiempo Temperatura Precipitaciones Viento Presión Humedad
    00:00 +6°C° 0.3 mm 2 mps 474 mmHg 78%
    01:00 +6°C° 0.3 mm 2 mps 474 mmHg 78%
    02:00 +5°C° 0.1 mm 2 mps 473 mmHg 79%
    03:00 +6°C° 0.1 mm 1 mps 473 mmHg 79%
    04:00 +6°C° 0.1 mm 1 mps 473 mmHg 80%
    05:00 +7°C° 0 mm 1 mps 474 mmHg 76%
    06:00 +7°C° 0 mm 1 mps 475 mmHg 71%
    07:00 +8°C° 0 mm 1 mps 475 mmHg 67%
    08:00 +8°C° 0 mm 2 mps 476 mmHg 62%
    09:00 +10°C° 0 mm 3 mps 477 mmHg 57%
    10:00 +11°C° 0 mm 3 mps 477 mmHg 53%
    11:00 +11°C° 0.4 mm 4 mps 477 mmHg 51%
    12:00 +12°C° 0.4 mm 4 mps 477 mmHg 50%
    13:00 +12°C° 0.4 mm 5 mps 477 mmHg 48%
    14:00 +12°C° 0.2 mm 5 mps 476 mmHg 51%
    15:00 +10°C° 0.2 mm 5 mps 476 mmHg 54%
    16:00 +10°C° 0.2 mm 5 mps 475 mmHg 56%
    17:00 +8°C° 0.2 mm 4 mps 475 mmHg 64%
    18:00 +7°C° 0.2 mm 4 mps 475 mmHg 71%
    19:00 +6°C° 0.2 mm 4 mps 474 mmHg 79%
    20:00 +5°C° 0 mm 3 mps 474 mmHg 80%
    21:00 +6°C° 0 mm 2 mps 474 mmHg 81%
    22:00 +6°C° 0 mm 2 mps 474 mmHg 83%
    23:00 +6°C° 0 mm 1 mps 474 mmHg 84%

    24 Septiembre, Lunes

    Tiempo Temperatura Precipitaciones Viento Presión Humedad
    00:00 +6°C° 0 mm 1 mps 473 mmHg 85%
    01:00 +6°C° 0 mm 1 mps 473 mmHg 86%
    02:00 +4°C° 0 mm 0 mps 473 mmHg 85%
    03:00 +4°C° 0 mm 0 mps 473 mmHg 85%
    04:00 +4°C° 0 mm 0 mps 473 mmHg 85%
    05:00 +6°C° 0.1 mm 1 mps 474 mmHg 80%
    06:00 +7°C° 0.1 mm 1 mps 475 mmHg 75%
    07:00 +8°C° 0.1 mm 1 mps 475 mmHg 70%
    08:00 +8°C° 0.2 mm 2 mps 476 mmHg 64%
    09:00 +9°C° 0.2 mm 2 mps 477 mmHg 58%
    10:00 +11°C° 0.2 mm 3 mps 478 mmHg 52%
    11:00 +11°C° 1.2 mm 3 mps 477 mmHg 53%
    12:00 +11°C° 1.2 mm 4 mps 477 mmHg 55%
    13:00 +11°C° 1.2 mm 4 mps 476 mmHg 57%
    14:00 +10°C° 1.9 mm 4 mps 476 mmHg 61%
    15:00 +8°C° 1.9 mm 4 mps 475 mmHg 65%
    16:00 +8°C° 1.9 mm 4 mps 475 mmHg 69%
    17:00 +8°C° 1.3 mm 3 mps 474 mmHg 72%
    18:00 +7°C° 1.3 mm 2 mps 474 mmHg 75%
    19:00 +6°C° 1.3 mm 2 mps 474 mmHg 77%
    20:00 +7°C° 0.1 mm 1 mps 474 mmHg 79%
    21:00 +7°C° 0.1 mm 1 mps 474 mmHg 80%
    22:00 +6°C° 0.1 mm 1 mps 474 mmHg 81%
    23:00 +6°C° 0 mm 1 mps 474 mmHg 82%
    Mostrar más